| time (UTC) | temp C | wind direction | speed KPH | gust KPH | rain 1hr cm | rain 24hr cm | rain mn cm | humidity % | barometer mb |
| 20260510091706 | 18 | 316 | 4.8 | 16.1 | 0.00 | 0.00 | 0.00 | 71 | 1011.0 |
| 20260510090706 | 18 | 0 | 8.0 | 8.0 | 0.00 | 0.00 | 0.00 | 71 | 1011.0 |
| 20260510090207 | 18 | 8 | 6.4 | 9.7 | 0.00 | 0.00 | 0.00 | 72 | 1011.0 |
| 20260510085707 | 18 | 340 | 4.8 | 9.7 | 0.00 | 0.00 | 0.00 | 72 | 1011.0 |
| 20260510085207 | 17 | 315 | 4.8 | 9.7 | 0.00 | 0.00 | 0.00 | 73 | 1011.0 |
| 20260510084207 | 17 | 357 | 4.8 | 12.9 | 0.00 | 0.00 | 0.00 | 74 | 1011.0 |
| 20260510083706 | 17 | 330 | 6.4 | 9.7 | 0.00 | 0.00 | 0.00 | 75 | 1011.0 |
| 20260510083207 | 16 | 334 | 6.4 | 9.7 | 0.00 | 0.00 | 0.00 | 76 | 1011.0 |
| 20260510082707 | 17 | 349 | 4.8 | 12.9 | 0.00 | 0.00 | 0.00 | 75 | 1011.0 |
| 20260510082206 | 16 | 157 | 3.2 | 9.7 | 0.00 | 0.00 | 0.00 | 77 | 1011.0 |
| 20260510081706 | 16 | 357 | 8.0 | 9.7 | 0.00 | 0.00 | 0.00 | 77 | 1011.0 |
| 20260510080208 | 16 | 52 | 6.4 | 9.7 | 0.00 | 0.00 | 0.00 | 79 | 1011.0 |
| 20260510075705 | 16 | 333 | 6.4 | 6.4 | 0.00 | 0.00 | 0.00 | 79 | 1011.0 |
| 20260510075207 | 16 | 341 | 6.4 | 6.4 | 0.00 | 0.00 | 0.00 | 79 | 1011.0 |
| 20260510074705 | 16 | 62 | 3.2 | 6.4 | 0.00 | 0.00 | 0.00 | 80 | 1011.0 |
| 20260510074206 | 16 | 1 | 3.2 | 6.4 | 0.00 | 0.00 | 0.00 | 81 | 1011.0 |
| 20260510073706 | 16 | 357 | 4.8 | 6.4 | 0.00 | 0.00 | 0.00 | 80 | 1011.0 |
| 20260510073206 | 16 | 331 | 4.8 | 6.4 | 0.00 | 0.00 | 0.00 | 81 | 1011.0 |
| 20260510072705 | 15 | 353 | 0.0 | 6.4 | 0.00 | 0.00 | 0.00 | 81 | 1011.0 |
| 20260510072206 | 15 | 345 | 3.2 | 9.7 | 0.00 | 0.00 | 0.00 | 82 | 1011.0 |
| 20260510071206 | 15 | 357 | 0.0 | 9.7 | 0.00 | 0.00 | 0.00 | 81 | 1011.0 |
| 20260510070705 | 15 | 321 | 4.8 | 9.7 | 0.00 | 0.00 | 0.00 | 81 | 1011.0 |
| 20260510070207 | 15 | 341 | 0.0 | 9.7 | 0.00 | 0.00 | 0.00 | 81 | 1011.0 |
| 20260510065705 | 15 | 336 | 0.0 | 8.0 | 0.00 | 0.00 | 0.00 | 81 | 1011.0 |
| 20260510065207 | 15 | 344 | 4.8 | 8.0 | 0.00 | 0.00 | 0.00 | 81 | 1011.0 |
| 20260510064706 | 15 | 333 | 4.8 | 6.4 | 0.00 | 0.00 | 0.00 | 82 | 1011.0 |
| 20260510064206 | 15 | 4 | 3.2 | 6.4 | 0.00 | 0.00 | 0.00 | 82 | 1011.0 |
| 20260510063705 | 15 | 357 | 0.0 | 6.4 | 0.00 | 0.00 | 0.00 | 84 | 1011.0 |
| 20260510063207 | 14 | 78 | 4.8 | 6.4 | 0.00 | 0.00 | 0.00 | 85 | 1011.0 |
| 20260510062206 | 14 | 74 | 0.0 | 4.8 | 0.00 | 0.00 | 0.00 | 89 | 1011.0 |
| 20260510061205 | 13 | 353 | 0.0 | 4.8 | 0.00 | 0.00 | 0.00 | 92 | 1011.0 |
| 20260510060706 | 13 | 357 | 0.0 | 6.4 | 0.00 | 0.00 | 0.00 | 93 | 1011.0 |
| 20260510060207 | 13 | 357 | 0.0 | 6.4 | 0.00 | 0.00 | 0.00 | 93 | 1011.0 |
| 20260510055707 | 13 | 357 | 0.0 | 6.4 | 0.00 | 0.00 | 0.00 | 94 | 1011.0 |
| 20260510054706 | 13 | 340 | 3.2 | 4.8 | 0.00 | 0.00 | 0.00 | 95 | 1011.0 |
| 20260510054206 | 13 | 335 | 0.0 | 4.8 | 0.00 | 0.00 | 0.00 | 95 | 1011.0 |
| 20260510053706 | 13 | 335 | 0.0 | 4.8 | 0.00 | 0.00 | 0.00 | 95 | 1011.0 |
| 20260510053206 | 13 | 335 | 0.0 | 4.8 | 0.00 | 0.00 | 0.00 | 95 | 1011.0 |
| 20260510050706 | 12 | 337 | 0.0 | 3.2 | 0.00 | 0.00 | 0.00 | 96 | 1011.0 |
| 20260510050206 | 12 | 337 | 0.0 | 3.2 | 0.00 | 0.00 | 0.00 | 96 | 1011.0 |
| 20260510045706 | 12 | 337 | 0.0 | 3.2 | 0.00 | 0.00 | 0.00 | 96 | 1011.0 |
| 20260510045207 | 12 | 333 | 0.0 | 3.2 | 0.00 | 0.00 | 0.00 | 96 | 1011.0 |
| 20260510044705 | 12 | 335 | 0.0 | 3.2 | 0.00 | 0.00 | 0.00 | 96 | 1011.0 |
| 20260510044206 | 12 | 335 | 0.0 | 3.2 | 0.00 | 0.00 | 0.00 | 96 | 1011.0 |
| 20260510043705 | 12 | 335 | 0.0 | 0.0 | 0.00 | 0.00 | 0.00 | 97 | 1011.0 |
| 20260510043207 | 12 | 335 | 0.0 | 0.0 | 0.00 | 0.00 | 0.00 | 97 | 1011.0 |
| 20260510042706 | 12 | 335 | 0.0 | 4.8 | 0.00 | 0.00 | 0.00 | 97 | 1011.0 |
| 20260510042207 | 12 | 335 | 0.0 | 4.8 | 0.00 | 0.00 | 0.00 | 97 | 1011.0 |
| 20260510041206 | 12 | 338 | 0.0 | 6.4 | 0.00 | 0.00 | 0.00 | 97 | 1011.0 |
| 20260510040207 | 12 | 306 | 0.0 | 0.0 | 0.00 | 0.00 | 0.00 | 97 | 1011.0 |
| 20260510035706 | 12 | 326 | 0.0 | 0.0 | 0.00 | 0.00 | 0.00 | 97 | 1011.0 |
| 20260510035206 | 12 | 326 | 0.0 | 0.0 | 0.00 | 0.00 | 0.00 | 96 | 1011.0 |
| 20260510034706 | 12 | 326 | 0.0 | 0.0 | 0.00 | 0.00 | 0.00 | 96 | 1011.0 |
| 20260510034207 | 12 | 326 | 0.0 | 0.0 | 0.00 | 0.00 | 0.00 | 96 | 1011.0 |
| 20260510033706 | 12 | 326 | 0.0 | 0.0 | 0.00 | 0.00 | 0.00 | 96 | 1011.0 |
| 20260510033205 | 12 | 326 | 0.0 | 0.0 | 0.00 | 0.00 | 0.00 | 96 | 1011.0 |
| 20260510032706 | 12 | 326 | 0.0 | 0.0 | 0.00 | 0.00 | 0.00 | 95 | 1011.0 |
| 20260510030707 | 12 | 326 | 0.0 | 0.0 | 0.00 | 0.00 | 0.00 | 96 | 1011.0 |
| 20260510030207 | 12 | 326 | 0.0 | 0.0 | 0.00 | 0.00 | 0.00 | 95 | 1011.0 |
| 20260510025706 | 12 | 326 | 0.0 | 0.0 | 0.00 | 0.00 | 0.00 | 96 | 1011.0 |
| 20260510025206 | 12 | 326 | 0.0 | 0.0 | 0.00 | 0.00 | 0.00 | 96 | 1011.0 |
| 20260510024706 | 12 | 326 | 0.0 | 0.0 | 0.00 | 0.00 | 0.00 | 96 | 1011.0 |
| 20260510024207 | 12 | 326 | 0.0 | 0.0 | 0.00 | 0.00 | 0.00 | 96 | 1011.0 |
| 20260510023706 | 13 | 326 | 0.0 | 0.0 | 0.00 | 0.00 | 0.00 | 96 | 1011.0 |
| 20260510023206 | 13 | 326 | 0.0 | 0.0 | 0.00 | 0.00 | 0.00 | 96 | 1011.0 |
| 20260510022707 | 13 | 318 | 0.0 | 0.0 | 0.00 | 0.00 | 0.00 | 97 | 1011.0 |
| 20260510022206 | 13 | 345 | 0.0 | 0.0 | 0.00 | 0.00 | 0.00 | 97 | 1011.0 |
| 20260510020706 | 13 | 345 | 0.0 | 0.0 | 0.00 | 0.00 | 0.00 | 97 | 1011.0 |
| 20260510020208 | 13 | 345 | 0.0 | 0.0 | 0.00 | 0.00 | 0.00 | 97 | 1011.0 |
| 20260510015705 | 13 | 345 | 0.0 | 0.0 | 0.00 | 0.00 | 0.00 | 97 | 1011.0 |
| 20260510015207 | 13 | 345 | 0.0 | 0.0 | 0.00 | 0.00 | 0.00 | 97 | 1011.0 |
| 20260510014705 | 13 | 345 | 0.0 | 4.8 | 0.00 | 0.00 | 0.00 | 97 | 1011.0 |
| 20260510014207 | 13 | 345 | 0.0 | 4.8 | 0.00 | 0.00 | 0.00 | 97 | 1011.0 |
| 20260510013706 | 13 | 345 | 0.0 | 4.8 | 0.00 | 0.00 | 0.00 | 97 | 1011.0 |
| 20260510013206 | 13 | 313 | 0.0 | 4.8 | 0.00 | 0.00 | 0.00 | 97 | 1011.0 |
| 20260510012706 | 13 | 313 | 0.0 | 4.8 | 0.00 | 0.00 | 0.00 | 97 | 1011.0 |
| 20260510012206 | 13 | 322 | 0.0 | 4.8 | 0.00 | 0.00 | 0.00 | 97 | 1011.0 |
| 20260510011705 | 13 | 322 | 0.0 | 4.8 | 0.00 | 0.00 | 0.00 | 97 | 1011.0 |
| 20260510011208 | 13 | 322 | 0.0 | 4.8 | 0.00 | 0.00 | 0.00 | 97 | 1011.0 |
| 20260510010207 | 13 | 324 | 0.0 | 0.0 | 0.00 | 0.00 | 0.00 | 97 | 1011.0 |
| 20260510005706 | 13 | 324 | 0.0 | 0.0 | 0.00 | 0.00 | 0.00 | 97 | 1011.0 |
| 20260510005206 | 13 | 324 | 0.0 | 0.0 | 0.00 | 0.00 | 0.00 | 97 | 1011.0 |
| 20260510004707 | 13 | 324 | 0.0 | 0.0 | 0.00 | 0.00 | 0.00 | 97 | 1011.0 |
| 20260510003705 | 13 | 324 | 0.0 | 0.0 | 0.00 | 0.00 | 0.00 | 97 | 1012.0 |
| 20260510003206 | 13 | 324 | 0.0 | 0.0 | 0.00 | 0.00 | 0.00 | 97 | 1012.0 |
| 20260510002707 | 13 | 324 | 0.0 | 0.0 | 0.00 | 0.00 | 0.00 | 96 | 1012.0 |
| 20260510002207 | 13 | 324 | 0.0 | 0.0 | 0.00 | 0.00 | 0.00 | 96 | 1012.0 |
| 20260510001705 | 14 | 324 | 0.0 | 0.0 | 0.00 | 0.00 | 0.00 | 96 | 1012.0 |
| 20260510001206 | 14 | 324 | 0.0 | 0.0 | 0.00 | 0.00 | 0.00 | 96 | 1012.0 |
| 20260510000707 | 14 | 324 | 0.0 | 0.0 | 0.00 | 0.00 | 0.00 | 96 | 1012.0 |
| 20260510000207 | 14 | 324 | 0.0 | 0.0 | 0.00 | 0.00 | 0.00 | 96 | 1012.0 |
| 20260509235705 | 14 | 324 | 0.0 | 0.0 | 0.00 | 0.00 | 0.00 | 96 | 1012.0 |
| 20260509235206 | 14 | 324 | 0.0 | 0.0 | 0.00 | 0.00 | 0.00 | 96 | 1012.0 |
| 20260509234706 | 14 | 324 | 0.0 | 0.0 | 0.00 | 0.00 | 0.00 | 96 | 1012.0 |
| 20260509234207 | 14 | 324 | 0.0 | 0.0 | 0.00 | 0.00 | 0.00 | 96 | 1012.0 |
| 20260509233706 | 14 | 324 | 0.0 | 0.0 | 0.00 | 0.00 | 0.00 | 96 | 1012.0 |
| 20260509233205 | 14 | 324 | 0.0 | 3.2 | 0.00 | 0.00 | 0.00 | 96 | 1012.0 |
| 20260509232706 | 14 | 324 | 0.0 | 3.2 | 0.00 | 0.00 | 0.00 | 96 | 1012.0 |
| 20260509232206 | 15 | 324 | 0.0 | 3.2 | 0.00 | 0.00 | 0.00 | 96 | 1012.0 |
| 20260509231206 | 15 | 329 | 0.0 | 0.0 | 0.00 | 0.00 | 0.00 | 96 | 1012.0 |
| 20260509230707 | 15 | 329 | 0.0 | 3.2 | 0.00 | 0.00 | 0.00 | 96 | 1012.0 |
| 20260509230207 | 15 | 329 | 0.0 | 3.2 | 0.00 | 0.00 | 0.00 | 95 | 1012.0 |
| 20260509225706 | 15 | 329 | 0.0 | 3.2 | 0.00 | 0.00 | 0.00 | 95 | 1012.0 |
| 20260509225206 | 15 | 329 | 0.0 | 3.2 | 0.00 | 0.00 | 0.00 | 95 | 1012.0 |
| 20260509224706 | 15 | 326 | 0.0 | 0.0 | 0.00 | 0.00 | 0.00 | 95 | 1012.0 |
| 20260509224205 | 15 | 326 | 0.0 | 0.0 | 0.00 | 0.00 | 0.00 | 95 | 1012.0 |
| 20260509223706 | 15 | 326 | 0.0 | 0.0 | 0.00 | 0.00 | 0.00 | 95 | 1012.0 |
| 20260509223206 | 15 | 326 | 0.0 | 0.0 | 0.00 | 0.00 | 0.00 | 95 | 1012.0 |
| 20260509222206 | 15 | 326 | 0.0 | 0.0 | 0.00 | 0.00 | 0.00 | 95 | 1012.0 |
| 20260509221206 | 15 | 326 | 0.0 | 0.0 | 0.00 | 0.00 | 0.00 | 96 | 1012.0 |
| 20260509220705 | 15 | 326 | 0.0 | 0.0 | 0.00 | 0.00 | 0.00 | 96 | 1012.0 |
| 20260509220207 | 15 | 326 | 0.0 | 0.0 | 0.00 | 0.00 | 0.00 | 96 | 1012.0 |
| 20260509215705 | 15 | 326 | 0.0 | 0.0 | 0.00 | 0.00 | 0.00 | 96 | 1012.0 |
| 20260509215207 | 15 | 326 | 0.0 | 0.0 | 0.00 | 0.00 | 0.00 | 96 | 1012.0 |
| 20260509214706 | 15 | 326 | 0.0 | 4.8 | 0.00 | 0.00 | 0.00 | 96 | 1012.0 |
| 20260509214206 | 15 | 322 | 0.0 | 4.8 | 0.00 | 0.00 | 0.00 | 96 | 1012.0 |
| 20260509213706 | 15 | 328 | 0.0 | 4.8 | 0.00 | 0.00 | 0.00 | 96 | 1012.0 |
| 20260509213206 | 15 | 0 | 0.0 | 4.8 | 0.00 | 0.00 | 0.00 | 96 | 1012.0 |
| 20260509212706 | 15 | 330 | 0.0 | 6.4 | 0.00 | 0.00 | 0.00 | 97 | 1012.0 |
| 20260509212206 | 15 | 330 | 0.0 | 6.4 | 0.00 | 0.00 | 0.00 | 97 | 1012.0 |
| 20260509211706 | 15 | 325 | 0.0 | 6.4 | 0.00 | 0.00 | 0.00 | 97 | 1012.0 |
| 20260509211205 | 15 | 334 | 0.0 | 6.4 | 0.00 | 0.00 | 0.00 | 97 | 1012.0 |
| 20260509210706 | 15 | 334 | 0.0 | 4.8 | 0.00 | 0.00 | 0.00 | 97 | 1012.0 |
| 20260509210207 | 15 | 332 | 0.0 | 4.8 | 0.00 | 0.00 | 0.00 | 97 | 1012.0 |
| 20260509205705 | 15 | 332 | 0.0 | 4.8 | 0.00 | 0.00 | 0.00 | 97 | 1012.0 |
| 20260509205206 | 15 | 337 | 0.0 | 4.8 | 0.00 | 0.00 | 0.00 | 97 | 1012.0 |
| 20260509204706 | 15 | 344 | 3.2 | 0.0 | 0.00 | 0.00 | 0.00 | 97 | 1012.0 |
| 20260509204207 | 15 | 341 | 0.0 | 0.0 | 0.00 | 0.00 | 0.00 | 97 | 1012.0 |
| 20260509203206 | 15 | 344 | 0.0 | 0.0 | 0.00 | 0.00 | 0.00 | 97 | 1012.0 |
| 20260509202706 | 15 | 344 | 0.0 | 0.0 | 0.00 | 0.00 | 0.00 | 97 | 1011.0 |
| 20260509202207 | 15 | 344 | 0.0 | 0.0 | 0.00 | 0.00 | 0.00 | 97 | 1011.0 |
| 20260509201705 | 15 | 344 | 0.0 | 0.0 | 0.00 | 0.00 | 0.00 | 97 | 1011.0 |
| 20260509201205 | 15 | 344 | 0.0 | 4.8 | 0.00 | 0.00 | 0.00 | 98 | 1011.0 |
| 20260509200706 | 15 | 344 | 0.0 | 4.8 | 0.00 | 0.00 | 0.00 | 98 | 1011.0 |
| 20260509200207 | 15 | 344 | 0.0 | 4.8 | 0.00 | 0.00 | 0.00 | 98 | 1011.0 |
| 20260509195707 | 15 | 338 | 0.0 | 0.0 | 0.00 | 0.00 | 0.00 | 98 | 1011.0 |
| 20260509195207 | 15 | 162 | 0.0 | 0.0 | 0.00 | 0.00 | 0.00 | 98 | 1011.0 |
| 20260509194706 | 15 | 162 | 0.0 | 3.2 | 0.00 | 0.00 | 0.00 | 98 | 1011.0 |
| 20260509194207 | 15 | 162 | 0.0 | 3.2 | 0.00 | 0.00 | 0.00 | 98 | 1011.0 |
| 20260509193706 | 15 | 162 | 0.0 | 4.8 | 0.00 | 0.00 | 0.00 | 98 | 1011.0 |
| 20260509193206 | 15 | 162 | 0.0 | 4.8 | 0.00 | 0.00 | 0.00 | 98 | 1011.0 |
| 20260509192706 | 15 | 157 | 0.0 | 6.4 | 0.00 | 0.00 | 0.00 | 98 | 1011.0 |
| 20260509192205 | 15 | 164 | 0.0 | 6.4 | 0.00 | 0.00 | 0.00 | 98 | 1011.0 |
| 20260509191206 | 15 | 110 | 0.0 | 0.0 | 0.00 | 0.00 | 0.00 | 98 | 1010.0 |
| 20260509190706 | 16 | 153 | 0.0 | 3.2 | 0.00 | 0.00 | 0.00 | 98 | 1010.0 |
| 20260509190207 | 15 | 153 | 0.0 | 3.2 | 0.00 | 0.00 | 0.00 | 98 | 1010.0 |
| 20260509185706 | 15 | 153 | 0.0 | 3.2 | 0.00 | 0.00 | 0.00 | 98 | 1010.0 |
| 20260509185206 | 15 | 153 | 0.0 | 3.2 | 0.00 | 0.00 | 0.00 | 98 | 1010.0 |
| 20260509184706 | 15 | 153 | 0.0 | 0.0 | 0.00 | 0.00 | 0.00 | 98 | 1010.0 |
| 20260509184207 | 15 | 140 | 0.0 | 0.0 | 0.00 | 0.00 | 0.00 | 98 | 1010.0 |
| 20260509183705 | 15 | 168 | 0.0 | 0.0 | 0.00 | 0.00 | 0.00 | 98 | 1010.0 |
| 20260509183207 | 15 | 153 | 0.0 | 3.2 | 0.00 | 0.00 | 0.00 | 98 | 1010.0 |
| 20260509182707 | 15 | 145 | 0.0 | 6.4 | 0.00 | 0.00 | 0.00 | 98 | 1010.0 |
| 20260509182206 | 15 | 172 | 0.0 | 6.4 | 0.00 | 0.00 | 0.00 | 98 | 1010.0 |
| 20260509181705 | 15 | 172 | 4.8 | 6.4 | 0.00 | 0.00 | 0.00 | 98 | 1010.0 |
| 20260509181207 | 15 | 148 | 3.2 | 6.4 | 0.00 | 0.00 | 0.00 | 98 | 1009.0 |
| 20260509180706 | 15 | 131 | 4.8 | 3.2 | 0.00 | 0.00 | 0.00 | 98 | 1009.0 |
| 20260509180206 | 15 | 123 | 0.0 | 3.2 | 0.00 | 0.00 | 0.00 | 98 | 1009.0 |
| 20260509175706 | 15 | 137 | 0.0 | 3.2 | 0.00 | 0.00 | 0.00 | 98 | 1009.0 |
| 20260509175207 | 15 | 138 | 0.0 | 0.0 | 0.00 | 0.00 | 0.00 | 98 | 1009.0 |
| 20260509174706 | 15 | 147 | 0.0 | 4.8 | 0.00 | 0.00 | 0.00 | 98 | 1009.0 |
| 20260509174206 | 15 | 187 | 0.0 | 4.8 | 0.00 | 0.00 | 0.00 | 98 | 1009.0 |
| 20260509173705 | 15 | 187 | 0.0 | 4.8 | 0.00 | 0.00 | 0.00 | 98 | 1009.0 |
| 20260509173206 | 15 | 314 | 0.0 | 4.8 | 0.00 | 0.00 | 0.00 | 98 | 1009.0 |
| 20260509172706 | 15 | 195 | 0.0 | 6.4 | 0.00 | 0.00 | 0.00 | 98 | 1009.0 |
| 20260509172206 | 15 | 185 | 0.0 | 6.4 | 0.00 | 0.00 | 0.00 | 98 | 1009.0 |
| 20260509171705 | 15 | 127 | 3.2 | 6.4 | 0.00 | 0.00 | 0.00 | 98 | 1009.0 |
| 20260509171206 | 15 | 151 | 0.0 | 6.4 | 0.00 | 0.00 | 0.00 | 98 | 1010.0 |
| 20260509170706 | 15 | 299 | 0.0 | 4.8 | 0.00 | 0.00 | 0.00 | 98 | 1010.0 |
| 20260509170207 | 15 | 221 | 0.0 | 4.8 | 0.00 | 0.00 | 0.00 | 98 | 1010.0 |
| 20260509165705 | 15 | 312 | 0.0 | 6.4 | 0.00 | 0.00 | 0.00 | 98 | 1010.0 |
| 20260509165206 | 15 | 311 | 0.0 | 6.4 | 0.00 | 0.00 | 0.00 | 98 | 1010.0 |
| 20260509164706 | 15 | 311 | 0.0 | 4.8 | 0.00 | 0.00 | 0.00 | 98 | 1010.0 |
| 20260509163705 | 15 | 316 | 0.0 | 4.8 | 0.00 | 0.00 | 0.00 | 98 | 1011.0 |
| 20260509162207 | 15 | 51 | 0.0 | 0.0 | 0.00 | 0.00 | 0.00 | 98 | 1012.0 |
| 20260509161705 | 15 | 49 | 0.0 | 4.8 | 0.00 | 0.00 | 0.00 | 98 | 1012.0 |
| 20260509161206 | 15 | 80 | 0.0 | 4.8 | 0.00 | 0.00 | 0.00 | 97 | 1012.0 |
| 20260509160706 | 15 | 127 | 0.0 | 4.8 | 0.00 | 0.00 | 0.00 | 97 | 1012.0 |
| 20260509160207 | 15 | 75 | 0.0 | 4.8 | 0.00 | 0.00 | 0.00 | 97 | 1012.0 |
| 20260509155705 | 15 | 84 | 0.0 | 4.8 | 0.00 | 0.00 | 0.00 | 97 | 1012.0 |
| 20260509155206 | 15 | 134 | 0.0 | 6.4 | 0.00 | 0.00 | 0.00 | 97 | 1012.0 |
| 20260509154206 | 16 | 222 | 0.0 | 6.4 | 0.00 | 0.00 | 0.00 | 96 | 1012.0 |
| 20260509153706 | 15 | 344 | 4.8 | 6.4 | 0.00 | 0.00 | 0.00 | 95 | 1012.0 |
| 20260509153205 | 15 | 73 | 0.0 | 4.8 | 0.00 | 0.00 | 0.00 | 95 | 1012.0 |
| 20260509152706 | 15 | 305 | 0.0 | 6.4 | 0.00 | 0.00 | 0.00 | 95 | 1010.0 |
| 20260509152206 | 15 | 137 | 0.0 | 6.4 | 0.00 | 0.00 | 0.00 | 95 | 1010.0 |
| 20260509151705 | 15 | 303 | 0.0 | 6.4 | 0.00 | 0.00 | 0.00 | 95 | 1010.0 |
| 20260509151206 | 15 | 309 | 0.0 | 6.4 | 0.00 | 0.00 | 0.00 | 95 | 1009.0 |
| 20260509150207 | 15 | 332 | 0.0 | 6.4 | 0.00 | 0.00 | 0.00 | 94 | 1009.0 |
| 20260509145705 | 15 | 170 | 0.0 | 9.7 | 0.00 | 0.00 | 0.00 | 94 | 1009.0 |
| 20260509145206 | 15 | 197 | 0.0 | 9.7 | 0.00 | 0.00 | 0.00 | 94 | 1009.0 |
| 20260509144707 | 15 | 194 | 3.2 | 9.7 | 0.00 | 0.00 | 0.00 | 93 | 1009.0 |
| 20260509144207 | 15 | 158 | 3.2 | 9.7 | 0.00 | 0.00 | 0.00 | 92 | 1010.0 |
| 20260509143706 | 15 | 137 | 0.0 | 8.0 | 0.00 | 0.00 | 0.00 | 91 | 1010.0 |
| 20260509143206 | 15 | 136 | 3.2 | 8.0 | 0.00 | 0.00 | 0.00 | 89 | 1010.0 |
| 20260509142707 | 15 | 183 | 4.8 | 9.7 | 0.00 | 0.00 | 0.00 | 87 | 1011.0 |
| 20260509142205 | 16 | 184 | 4.8 | 9.7 | 0.00 | 0.00 | 0.00 | 85 | 1011.0 |
| 20260509141705 | 16 | 175 | 6.4 | 9.7 | 0.00 | 0.00 | 0.00 | 83 | 1011.0 |
| 20260509141206 | 16 | 144 | 4.8 | 9.7 | 0.00 | 0.00 | 0.00 | 81 | 1011.0 |
| 20260509140707 | 16 | 156 | 4.8 | 9.7 | 0.00 | 0.00 | 0.00 | 79 | 1011.0 |
| 20260509140206 | 16 | 164 | 4.8 | 9.7 | 0.00 | 0.00 | 0.00 | 77 | 1011.0 |
| 20260509135707 | 17 | 137 | 6.4 | 8.0 | 0.00 | 0.00 | 0.00 | 73 | 1012.0 |
| 20260509135207 | 17 | 136 | 4.8 | 8.0 | 0.00 | 0.00 | 0.00 | 71 | 1012.0 |
| 20260509134206 | 18 | 124 | 4.8 | 9.7 | 0.00 | 0.00 | 0.00 | 65 | 1011.0 |
| 20260509133706 | 18 | 154 | 3.2 | 9.7 | 0.00 | 0.00 | 0.00 | 63 | 1011.0 |
| 20260509133207 | 18 | 133 | 3.2 | 9.7 | 0.00 | 0.00 | 0.00 | 63 | 1011.0 |
| 20260509132706 | 18 | 138 | 6.4 | 9.7 | 0.00 | 0.00 | 0.00 | 63 | 1011.0 |
| 20260509132207 | 18 | 158 | 4.8 | 9.7 | 0.00 | 0.00 | 0.00 | 62 | 1011.0 |
| 20260509131206 | 18 | 131 | 3.2 | 8.0 | 0.00 | 0.00 | 0.00 | 62 | 1011.0 |
| 20260509130706 | 18 | 159 | 4.8 | 8.0 | 0.00 | 0.00 | 0.00 | 63 | 1011.0 |
| 20260509130207 | 18 | 168 | 0.0 | 8.0 | 0.00 | 0.00 | 0.00 | 63 | 1011.0 |
| 20260509125706 | 18 | 155 | 0.0 | 6.4 | 0.00 | 0.00 | 0.00 | 63 | 1010.0 |
| 20260509125206 | 18 | 183 | 4.8 | 8.0 | 0.00 | 0.00 | 0.00 | 63 | 1010.0 |
| 20260509124707 | 18 | 166 | 4.8 | 8.0 | 0.00 | 0.00 | 0.00 | 62 | 1010.0 |
| 20260509124205 | 18 | 238 | 0.0 | 8.0 | 0.00 | 0.00 | 0.00 | 62 | 1011.0 |
| 20260509123706 | 18 | 138 | 3.2 | 9.7 | 0.00 | 0.00 | 0.00 | 62 | 1011.0 |
| 20260509123208 | 18 | 149 | 0.0 | 12.9 | 0.00 | 0.00 | 0.00 | 63 | 1011.0 |
| 20260509122706 | 18 | 211 | 6.4 | 12.9 | 0.00 | 0.00 | 0.00 | 62 | 1011.0 |
| 20260509122209 | 18 | 104 | 4.8 | 12.9 | 0.00 | 0.00 | 0.00 | 62 | 1011.0 |
| 20260509121206 | 18 | 177 | 3.2 | 9.7 | 0.00 | 0.00 | 0.00 | 62 | 1012.0 |
| 20260509120706 | 18 | 166 | 3.2 | 11.3 | 0.00 | 0.00 | 0.00 | 62 | 1012.0 |
| 20260509120206 | 18 | 129 | 0.0 | 11.3 | 0.00 | 0.00 | 0.00 | 63 | 1012.0 |
| 20260509115705 | 18 | 167 | 4.8 | 12.9 | 0.00 | 0.00 | 0.00 | 63 | 1012.0 |
| 20260509115206 | 18 | 163 | 4.8 | 12.9 | 0.00 | 0.00 | 0.00 | 62 | 1012.0 |
| 20260509114206 | 18 | 163 | 4.8 | 12.9 | 0.00 | 0.00 | 0.00 | 64 | 1012.0 |
| 20260509113707 | 18 | 150 | 6.4 | 12.9 | 0.00 | 0.00 | 0.00 | 64 | 1012.0 |
| 20260509113207 | 18 | 194 | 9.7 | 12.9 | 0.00 | 0.00 | 0.00 | 64 | 1012.0 |
| 20260509112706 | 18 | 181 | 6.4 | 12.9 | 0.00 | 0.00 | 0.00 | 64 | 1013.0 |
| 20260509112207 | 18 | 193 | 4.8 | 16.1 | 0.00 | 0.00 | 0.00 | 64 | 1013.0 |
| 20260509111707 | 18 | 173 | 9.7 | 16.1 | 0.00 | 0.00 | 0.00 | 65 | 1013.0 |
| 20260509111207 | 18 | 143 | 9.7 | 16.1 | 0.00 | 0.00 | 0.00 | 66 | 1012.0 |
| 20260509110706 | 18 | 166 | 11.3 | 14.5 | 0.00 | 0.00 | 0.00 | 67 | 1012.0 |
| 20260509110209 | 18 | 163 | 6.4 | 14.5 | 0.00 | 0.00 | 0.00 | 69 | 1012.0 |
| 20260509105705 | 18 | 158 | 4.8 | 9.7 | 0.00 | 0.00 | 0.00 | 69 | 1012.0 |
| 20260509105207 | 18 | 150 | 4.8 | 9.7 | 0.00 | 0.00 | 0.00 | 70 | 1012.0 |
| 20260509104705 | 18 | 209 | 4.8 | 9.7 | 0.00 | 0.00 | 0.00 | 69 | 1012.0 |
| 20260509104206 | 18 | 157 | 4.8 | 9.7 | 0.00 | 0.00 | 0.00 | 69 | 1013.0 |
| 20260509103705 | 18 | 176 | 4.8 | 9.7 | 0.00 | 0.00 | 0.00 | 69 | 1013.0 |
| 20260509103206 | 18 | 156 | 4.8 | 9.7 | 0.00 | 0.00 | 0.00 | 69 | 1013.0 |
| 20260509102705 | 18 | 165 | 4.8 | 9.7 | 0.00 | 0.00 | 0.00 | 69 | 1012.0 |
| 20260509102208 | 18 | 192 | 4.8 | 9.7 | 0.00 | 0.00 | 0.00 | 68 | 1012.0 |
| 20260509101706 | 18 | 179 | 4.8 | 8.0 | 0.00 | 0.00 | 0.00 | 69 | 1012.0 |
| 20260509101206 | 18 | 184 | 3.2 | 8.0 | 0.00 | 0.00 | 0.00 | 69 | 1012.0 |
| 20260509100706 | 18 | 171 | 6.4 | 8.0 | 0.00 | 0.00 | 0.00 | 70 | 1012.0 |
| 20260509100208 | 18 | 163 | 4.8 | 8.0 | 0.00 | 0.00 | 0.00 | 70 | 1012.0 |
| 20260509095707 | 18 | 188 | 6.4 | 6.4 | 0.00 | 0.00 | 0.00 | 69 | 1012.0 |
| 20260509095207 | 18 | 138 | 0.0 | 6.4 | 0.00 | 0.00 | 0.00 | 69 | 1012.0 |
| 20260509094706 | 18 | 198 | 4.8 | 9.7 | 0.00 | 0.00 | 0.00 | 70 | 1012.0 |
| 20260509094205 | 18 | 148 | 0.0 | 9.7 | 0.00 | 0.00 | 0.00 | 70 | 1012.0 |
| 20260509093705 | 18 | 161 | 0.0 | 12.9 | 0.00 | 0.00 | 0.00 | 70 | 1012.0 |
| 20260509092706 | 18 | 244 | 0.0 | 9.7 | 0.00 | 0.00 | 0.00 | 70 | 1012.0 |